Glenwood Springs, CO (81601)

8:08 PM MDT on August 29, 2015 (GMT -0600)
Elk Springs | | Change Station
CLOSE
Current Station
Personal Weather Station
Location: Glenwood Springs, CO
Elevation: 6988 ft
Nearby Weather Stations

Elev 6988 ft 39.48 °N, 107.25 °W | Updated 1 minute ago

Clear
Clear
71.6 °F
Feels Like 77 °F
N
2.7
Wind Variable Wind from West

Today
High -- | Low -- °F
--% Chance of Precip.
Yesterday
High -- | Low -- °F
Precip. -- in
6:34 AM 7:45 PM
Full, 100% visible
Pressure 29.92 in
Visibility 10.0 miles
Clouds Clear
Heat Index 77 °F
Dew Point 44 °F
Humidity 37%
Rainfall 0.00 in
Snow Depth Not available.
UV 0 out of 12
Pollen 9.90 out of 12
Air Quality Not available.
Flu Activity Not available.
METAR KRIL 300153Z AUTO 20006KT 10SM CLR 26/04 A3011 RMK AO2 SLP132 T02610044
Pressure 29.92 in
Visibility 10.0 miles
Clouds Clear
Heat Index 77 °F
Dew Point 44 °F
Humidity 37%
Rainfall 0.00 in
Snow Depth Not available.
UV 0 out of 12
Pollen 9.90 out of 12
Air Quality Not available.
Flu Activity Not available.
METAR KRIL 300153Z AUTO 20006KT 10SM CLR 26/04 A3011 RMK AO2 SLP132 T02610044

10-Day Weather Forecast

×

Almanac

Astronomy

Aug. 29, 2015 Rise Set
Actual Time
Civil Twilight
Nautical Twilight
Astronomical Twilight
Moon
Length of Visible Light
Length of Day
Tomorrow will be .
, % of the Moon is Illuminated

Today's Extremes

State Highs State Lows

Community

WunderPhotos

Upload Photos

1,850,847 photos uploaded!

WunderBlogs® & News

Nearby

Air Quality

  Air Quality AQ Index Pollutant
Not available.

Snow Depth

Station Depth Elevation

Earthquake Activity

City Distance Mag. Time & Date
Minimum magnitude displayed is 2.5.

Coastal Water Temperatures

Place Temperature

Stations

Nearby Weather Stations

Station Location Temp. Windchill Dew Point Humidity Wind Precip. Elev Updated Type